Dewpoint
49 50 50 50 49 49 48 49 48 48 48 47 47 47 47 48 49 49 49 49 49 49 49 50 50 50 51 51 51 52 52 47 45 44 42 40 47 53 53 57 58 57 60 42 29 37 35 19 23 25 26 28 27 26 25 24 19 13 15 14 15 16 13 11 9 7 14 7 14 17 11 12 11 12 14 54 59 60 61 62 63 64 64 66 67 68 68 69
50 49 50 50 50 49 49 47 48 48 48 48 48 48 49 47 48 48 49 49 49 49 50 50 50 50 50 51 52 52 50 46 45 43 42 46 52 58 60 59 59 60 56 30 23 28 36 20 15 18 23 28 27 23 24 21 18 10 16 17 12 14 14 15 13 12 16 15 17 16 14 12 12 11 17 44 53 57 60 62 63 64 65 66 67 67 68 69
49 50 49 49 49 49 48 48 48 47 47 47 47 48 48 47 48 48 48 48 49 49 49 49 50 50 50 50 51 52 49 44 42 40 41 53 54 57 60 58 58 60 28 20 22 24 33 32 16 18 25 28 24 21 21 16 14 9 16 13 12 12 11 11 10 15 18 16 17 16 15 19 16 13 17 42 50 54 56 60 62 63 63 65 67 67 68 68
49 49 49 49 49 49 49 48 47 48 47 48 48 48 49 49 49 49 49 48 48 48 49 50 50 49 50 51 51 50 45 42 34 31 43 62 57 56 58 56 58 56 28 18 16 17 21 23 23 22 27 26 23 21 17 12 11 10 10 11 11 10 9 9 10 17 19 17 16 15 19 16 18 18 13 36 48 50 53 59 61 62 63 65 66 67 67 68
49 49 49 49 49 49 49 49 48 47 48 47 47 47 47 47 49 49 49 48 49 48 49 49 49 50 50 50 51 48 44 25 11 32 53 63 61 57 57 57 60 47 27 20 15 14 14 18 25 24 23 22 21 19 17 10 12 15 9 11 11 12 10 11 10 11 19 24 19 16 10 12 20 32 26 26 33 48 52 55 61 62 63 64 65 66 67 67
49 49 49 49 49 49 49 48 48 48 48 47 46 46 46 46 48 49 49 48 48 48 48 49 49 49 50 51 48 46 42 11 30 29 60 58 58 58 59 61 61 41 20 15 13 13 16 22 25 23 21 21 18 16 14 11 11 9 9 9 10 10 9 10 10 18 16 17 18 15 15 13 18 35 47 51 50 54 57 59 61 62 63 64 66 66 66 67
49 49 49 49 49 49 49 48 48 48 48 47 46 46 46 46 47 49 49 49 49 48 48 48 49 49 49 50 45 43 40 36 35 40 60 58 58 57 59 63 59 34 27 17 12 11 16 20 23 19 20 20 18 16 15 10 10 9 8 11 11 10 9 8 11 16 16 17 16 16 15 13 12 31 51 52 55 58 60 61 61 62 63 64 65 66 66 66
49 49 49 49 49 49 49 49 48 48 48 47 47 46 47 46 47 49 48 48 48 48 48 48 48 49 49 45 42 38 39 31 25 39 58 62 60 62 57 45 35 27 24 19 14 11 14 17 20 19 17 18 17 15 14 12 10 9 9 10 10 10 9 9 11 15 16 16 16 15 14 13 12 19 50 50 55 58 59 60 61 62 63 64 65 65 66 66
48 48 48 48 49 49 48 48 48 48 48 47 46 46 46 46 47 48 48 48 48 47 47 48 48 48 49 45 41 37 31 33 27 35 58 56 44 52 42 36 31 23 22 20 17 14 13 15 17 17 15 16 16 13 12 11 8 8 8 8 8 8 9 12 10 15 15 19 15 14 16 13 11 13 42 51 54 57 58 59 60 61 62 63 64 65 65 66
48 48 48 48 48 48 48 48 48 48 47 47 46 47 48 48 49 48 48 48 48 47 47 47 48 48 45 42 40 35 36 29 28 37 49 43 39 44 36 29 26 19 16 16 17 16 14 13 15 16 15 13 13 12 11 9 7 8 8 8 6 6 8 13 14 14 14 17 16 16 16 12 11 13 43 51 54 56 57 57 59 60 61 62 63 64 65 66
48 48 47 48 48 48 48 49 48 48 47 47 47 48 48 48 48 48 48 47 47 46 46 47 47 47 42 41 39 34 34 27 25 36 42 37 38 40 35 30 24 20 15 14 15 16 15 14 14 13 12 12 13 12 10 8 7 5 8 11 6 5 5 11 11 13 13 17 18 14 12 11 9 11 38 49 54 56 56 58 58 59 61 62 63 63 65 66
48 48 47 48 48 48 48 48 49 48 48 47 47 47 48 48 48 48 48 47 46 46 46 46 47 44 43 41 39 38 39 33 38 35 33 31 37 39 36 29 24 21 17 13 12 14 14 14 13 11 8 13 10 11 9 9 7 5 4 5 10 11 5 6 7 10 11 14 13 13 11 9 10 6 42 50 54 55 56 58 59 59 60 61 62 63 64 64
48 48 47 47 47 48 48 48 48 48 48 47 47 47 48 48 48 47 48 48 47 46 46 46 46 43 41 39 37 40 41 39 35 31 30 29 28 31 34 28 25 25 18 14 12 12 12 12 11 9 9 7 11 8 10 8 5 6 5 8 9 10 8 7 6 9 8 10 11 11 9 8 7 9 25 51 52 54 55 57 58 59 60 60 61 62 63 63
48 48 47 47 48 48 48 48 48 48 48 48 47 47 47 48 48 48 48 47 47 46 46 46 44 42 41 39 40 40 37 37 38 32 32 31 25 27 25 27 28 26 24 17 13 12 10 10 10 9 9 7 7 11 8 7 14 5 5 7 11 10 11 8 6 6 6 9 10 11 13 11 7 8 10 44 50 51 53 55 56 58 59 59 60 62 61 62
48 48 47 47 47 47 47 47 48 48 48 47 47 47 47 47 47 47 48 48 46 46 46 46 44 42 41 40 39 40 51 42 36 29 21 26 22 20 25 27 32 33 31 29 25 21 17 12 10 9 7 9 8 8 7 6 5 5 5 5 8 9 9 8 7 6 5 9 10 10 19 9 7 7 7 36 49 51 51 52 52 53 55 57 61 61 61 61
49 48 48 47 47 46 47 47 47 47 47 47 47 47 47 48 48 48 48 48 48 46 44 41 40 40 38 34 33 41 40 37 31 29 24 24 22 17 21 27 30 29 28 25 24 23 19 14 9 7 7 7 7 8 8 7 6 3 5 24 9 7 6 6 4 6 7 9 10 9 8 7 6 6 7 39 49 50 49 48 48 50 54 60 61 61 62 62
49 49 47 47 46 46 46 46 46 46 46 47 47 47 48 48 48 48 48 48 44 43 40 38 39 40 32 29 35 32 28 28 32 24 22 24 21 15 13 17 24 24 23 22 21 20 19 18 16 9 7 7 10 10 10 10 13 9 5 10 13 6 6 5 3 5 7 7 8 9 8 9 10 7 14 43 47 48 47 46 47 50 58 60 60 61 61 62
49 49 48 47 46 46 46 45 45 46 47 47 48 47 46 48 48 48 45 44 43 42 39 40 38 37 36 37 33 30 30 26 29 23 22 22 19 14 10 10 17 21 20 19 20 19 20 20 12 13 15 12 15 12 11 10 13 16 15 12 8 6 7 4 2 4 6 7 9 10 10 9 8 8 27 44 46 46 47 47 49 55 58 60 60 61 61 61
50 49 48 46 46 45 45 45 46 46 47 48 47 48 49 50 47 45 40 39 40 38 35 36 37 30 14 29 34 32 28 25 24 22 20 19 17 13 10 9 9 18 18 18 20 20 19 19 26 15 11 13 9 10 10 9 8 9 12 9 8 9 4 2 2 5 6 8 6 9 9 8 9 11 22 36 44 45 46 48 51 53 58 60 60 60 61 61
50 49 48 46 46 46 46 46 46 46 46 46 43 41 39 42 42 38 38 38 37 35 28 27 36 33 32 28 21 34 31 26 19 21 20 18 16 11 8 5 4 19 17 19 20 21 20 18 16 14 16 14 13 11 9 7 5 7 10 7 5 4 3 3 2 6 7 7 8 10 12 9 11 12 22 26 28 44 46 49 50 52 55 58 59 60 60 60
51 50 49 47 46 45 45 45 46 46 46 44 42 39 34 35 34 31 37 37 38 37 34 31 34 33 32 27 21 22 22 24 20 19 20 20 15 8 5 2 6 20 17 16 21 21 20 19 18 17 15 15 14 15 17 10 6 2 4 7 4 3 2 2 1 6 7 18 8 12 12 11 12 14 22 26 41 43 46 49 53 55 57 58 59 59 59 60
50 50 49 48 46 46 45 45 46 46 47 45 43 38 37 36 35 34 33 28 34 37 35 32 29 28 32 32 28 25 23 19 17 17 19 17 12 4 3 -0 9 18 17 14 19 21 19 19 19 17 15 15 17 13 12 12 12 9 8 7 7 4 2 1 1 6 6 8 13 8 11 10 12 18 23 27 43 45 48 53 54 55 56 57 58 58 59 60
49 50 49 48 46 45 45 45 46 48 45 43 40 38 36 36 36 35 34 30 26 29 34 33 30 27 23 22 21 21 18 17 14 14 15 14 7 3 -0 -1 13 18 14 14 16 22 19 17 18 16 15 13 10 10 9 9 12 13 13 13 11 8 3 1 14 6 7 11 17 11 9 13 16 24 23 32 44 47 50 54 54 55 55 56 58 59 60 61
49 50 50 49 46 45 45 45 47 45 43 41 39 39 39 39 37 36 33 27 24 27 29 32 32 30 27 23 20 18 17 17 12 11 14 9 3 3 -1 1 13 17 14 14 14 17 16 15 16 15 12 9 10 9 12 12 9 15 13 11 10 8 5 1 9 7 8 8 26 12 16 14 18 21 22 39 47 46 50 53 54 54 55 57 58 59 60 60
49 49 49 49 47 45 44 46 42 41 41 40 39 39 38 37 36 35 31 28 27 26 28 27 31 31 31 31 25 18 18 17 16 11 11 6 2 1 -1 6 12 16 16 15 14 13 14 14 14 13 10 7 6 6 7 14 12 16 21 13 11 11 9 3 10 8 12 13 15 9 9 12 20 18 21 44 45 44 49 52 53 54 55 56 56 57 59 60
48 49 49 48 47 45 46 42 39 39 38 37 38 39 39 38 37 35 31 28 23 22 25 22 25 24 31 28 23 18 17 16 17 17 13 8 10 1 0 3 11 15 16 14 13 16 13 15 12 11 10 7 4 3 4 6 14 17 14 13 12 11 10 11 5 13 10 8 9 18 11 12 20 17 23 40 43 44 49 51 52 53 54 55 56 57 58 58
48 48 50 48 48 46 41 36 35 37 36 36 38 38 36 35 36 37 28 20 18 18 19 21 24 24 28 25 20 17 15 15 18 17 16 17 9 4 -1 1 13 15 17 24 17 12 13 11 10 9 9 7 5 4 4 6 12 11 15 14 11 10 10 12 13 9 14 18 25 10 12 14 14 17 24 26 40 46 48 50 52 53 55 56 57 57 57 57
47 48 49 49 47 46 40 40 39 36 35 37 39 33 35 33 39 38 32 19 15 18 15 21 22 25 24 20 18 15 17 17 15 15 16 14 14 3 1 -0 13 14 15 15 14 17 18 13 11 8 8 6 4 4 7 8 8 10 10 11 13 13 13 13 12 13 13 14 11 11 9 8 14 22 24 28 45 46 48 50 51 53 55 56 57 57 58 60
47 48 49 48 48 47 45 42 39 37 37 38 38 35 33 36 37 35 25 19 24 10 18 19 22 21 19 16 15 15 16 13 12 13 14 12 12 7 1 -0 11 15 15 15 17 18 13 13 11 8 6 6 5 5 6 7 7 7 7 10 13 13 13 13 14 14 17 11 12 12 12 8 10 26 21 26 41 46 48 49 52 53 55 57 58 59 59 59
47 48 48 48 47 44 43 42 40 40 39 38 37 34 39 36 34 27 23 14 24 14 14 17 17 16 15 12 12 13 14 10 10 11 12 10 10 11 12 2 1 14 14 15 15 15 14 19 20 11 7 6 6 6 5 5 4 9 7 7 8 11 14 14 16 16 20 12 15 11 12 6 7 22 21 27 34 42 49 51 53 55 56 57 57 57 57 58
47 47 48 47 44 40 40 38 38 39 37 36 35 36 36 34 30 22 17 18 19 12 15 15 14 15 12 9 8 11 12 9 5 11 10 11 11 11 15 7 2 3 17 15 14 13 13 12 13 15 14 8 5 4 3 4 4 8 8 8 9 13 12 18 17 19 12 17 19 11 10 6 7 18 23 28 32 50 51 51 53 55 56 57 56 56 57 59
47 47 48 47 43 41 36 34 36 36 35 34 35 36 36 24 26 22 18 19 13 13 13 13 12 12 10 8 7 9 9 8 4 9 9 12 15 13 13 11 8 6 9 15 13 13 12 12 13 14 24 9 5 3 2 3 3 6 10 12 13 12 10 6 7 7 14 17 17 10 8 14 9 38 46 45 30 51 52 52 53 55 55 56 57 58 58 58
47 48 49 47 45 42 40 40 37 37 39 38 40 34 31 24 18 23 24 24 20 15 14 13 10 10 8 6 5 7 8 5 4 6 8 12 14 13 12 10 7 11 14 19 20 16 16 14 13 13 14 18 6 3 5 2 3 5 6 16 13 9 6 5 12 14 14 17 15 11 10 12 24 44 46 51 51 52 52 52 54 55 55 56 57 57 57 57
47 48 47 47 44 41 40 42 38 39 41 41 35 32 29 22 18 22 19 21 24 20 18 13 10 9 6 4 4 5 4 4 3 2 5 12 13 15 10 10 8 6 15 24 14 13 14 14 12 13 13 13 11 5 3 4 5 5 8 11 18 12 15 6 12 11 14 14 13 9 12 24 36 42 49 52 53 53 54 54 55 55 55 55 56 55 56 56
48 47 46 47 45 41 40 38 41 43 41 38 34 31 23 21 23 21 18 17 18 22 20 19 12 10 5 3 4 3 3 5 2 1 3 12 14 15 11 8 8 8 11 18 20 17 11 15 16 13 16 11 10 9 8 6 6 10 10 10 11 11 22 10 17 12 15 12 11 22 28 42 44 48 52 53 53 53 53 53 54 53 54 54 54 54 54 54
46 46 45 43 41 40 40 36 38 41 40 35 31 26 24 23 21 24 26 30 29 25 23 23 26 10 8 3 2 1 3 5 4 4 3 9 12 12 10 8 8 8 13 19 24 15 11 14 11 10 10 10 10 10 9 10 12 16 6 8 8 12 13 16 17 24 20 15 14 37 41 44 46 49 51 53 52 52 52 52 52 52 52 52 52 53 53 53
44 46 41 41 39 39 38 36 37 40 38 32 29 24 26 26 25 23 28 27 27 28 30 24 21 10 9 5 7 4 5 5 9 4 5 4 11 10 9 9 9 9 9 18 24 16 21 19 11 9 7 9 10 11 13 15 11 7 7 6 9 7 14 21 16 11 15 16 13 37 37 41 41 36 51 50 51 51 51 51 52 52 52 52 52 52 52 53
42 42 40 38 38 37 37 36 38 40 35 31 27 28 28 26 26 27 28 29 28 27 32 28 29 11 10 10 10 9 7 5 10 4 9 2 12 9 9 8 8 7 8 9 16 21 17 16 12 10 9 9 12 12 11 12 14 7 5 6 5 10 9 22 18 9 8 9 16 35 40 40 39 40 47 48 49 50 50 50 50 50 51 51 51 52 52 52
43 41 36 37 36 36 36 36 38 34 33 28 26 26 27 26 25 26 26 27 28 27 32 30 29 26 28 16 11 8 5 5 8 6 5 5 7 12 9 8 7 6 6 8 9 29 27 20 19 11 9 8 10 11 14 12 11 11 8 5 4 13 20 15 16 20 14 16 12 31 37 31 40 43 47 48 49 50 49 49 50 50 50 50 51 51 51 51
39 36 34 37 36 36 37 37 36 33 29 24 24 25 26 23 25 27 28 28 26 28 36 30 28 29 29 27 26 14 2 2 4 11 6 12 8 11 8 8 7 5 5 7 10 23 21 23 19 22 9 9 10 12 11 11 12 9 9 10 7 19 22 15 24 10 15 17 16 27 29 33 41 45 46 48 49 50 49 49 49 50 50 50 51 51 51 51
40 36 35 38 35 36 36 35 32 28 26 26 23 22 22 23 26 27 27 27 27 27 25 36 31 30 30 28 26 25 6 1 2 9 8 8 8 12 9 8 7 5 5 6 8 24 19 19 19 23 10 10 12 10 9 9 8 9 13 13 8 8 10 8 18 14 18 16 17 28 25 35 43 50 47 48 50 49 49 49 49 49 50 50 51 51 50 50
37 30 35 46 36 36 35 31 30 29 26 24 23 22 21 27 24 26 27 27 25 25 23 27 29 25 27 26 26 24 22 2 1 12 6 16 14 14 11 9 7 6 5 13 10 25 29 29 23 18 20 13 10 8 7 6 6 7 7 10 6 16 18 13 11 16 12 15 20 28 32 31 47 50 50 50 50 49 49 49 49 49 50 50 50 49 49 49
37 34 44 44 45 34 33 29 28 27 24 24 23 22 20 20 21 24 25 25 24 22 19 20 22 26 28 26 24 23 21 22 2 11 14 12 24 12 10 8 7 6 6 11 8 22 42 22 18 16 16 14 11 10 8 8 6 5 5 9 9 17 14 17 23 25 13 20 12 22 31 38 48 49 50 51 50 49 49 49 49 49 49 49 49 48 48 48
37 36 39 45 44 39 31 27 26 25 25 22 23 20 19 21 22 23 24 22 22 21 22 24 26 24 24 24 24 23 23 21 16 7 11 11 18 16 10 8 8 7 6 16 12 30 18 25 25 18 18 15 12 12 8 8 8 13 17 14 7 10 14 21 24 25 15 26 22 26 32 35 47 49 50 50 49 48 48 48 48 48 48 48 48 47 47 47
37 41 41 39 44 39 29 28 28 29 27 23 21 21 21 20 21 22 21 21 22 21 23 22 23 25 23 24 25 23 22 22 26 22 20 17 31 14 13 8 8 11 9 21 36 22 24 27 24 20 18 14 12 13 17 13 9 17 24 17 8 5 24 19 13 15 14 23 21 34 35 43 48 48 48 48 48 47 47 48 47 47 47 47 47 47 47 47
35 30 37 38 41 40 36 34 32 33 31 31 27 25 21 22 20 21 22 22 22 22 19 22 22 23 23 24 27 23 23 24 25 27 18 24 26 13 15 18 13 10 25 42 35 25 26 30 25 26 23 23 20 22 21 19 18 10 17 19 19 8 9 24 21 15 18 23 30 38 41 42 44 46 46 47 47 47 47 47 46 46 46 46 46 47 47 47
38 32 31 30 36 36 33 32 30 29 30 32 27 27 26 21 20 19 21 24 21 21 19 21 25 27 28 28 33 29 26 27 26 28 30 31 32 21 22 32 27 39 41 42 32 21 27 21 25 28 29 25 26 26 26 17 21 14 16 20 12 18 17 20 21 23 28 30 33 41 43 42 43 46 46 46 46 46 47 47 46 46 46 46 46 46 47 46
32 36 37 38 31 29 29 29 27 27 27 28 29 29 25 25 23 24 22 21 14 20 27 23 19 21 21 22 31 30 31 29 31 32 34 35 29 30 29 33 32 43 35 26 29 30 27 20 28 27 29 28 26 31 29 28 30 30 20 17 18 18 23 19 24 32 31 24 31 42 43 42 44 46 46 46 46 46 46 46 46 46 46 46 45 45 45 45
39 37 38 39 31 32 28 29 28 26 27 25 26 27 27 26 26 24 23 29 16 29 22 23 31 23 24 23 28 30 31 28 28 37 37 35 33 34 31 31 29 35 28 28 22 34 24 28 34 28 28 31 32 33 33 29 32 31 35 38 38 35 30 26 25 29 27 33 39 43 43 43 46 46 46 46 46 46 46 46 45 45 45 45 44 44 44 45
36 36 33 37 38 35 33 32 32 28 26 28 27 29 23 27 26 23 23 26 27 33 25 29 26 30 29 28 28 30 33 32 35 30 38 38 35 37 32 31 28 30 23 29 32 34 29 27 37 32 27 30 33 34 35 33 35 34 40 40 41 39 36 30 33 43 43 43 43 43 43 43 47 47 46 46 46 46 45 44 44 44 44 44 44 44 44 45
42 44 42 38 35 34 34 33 31 29 25 27 25 29 27 26 26 25 24 27 30 31 32 31 29 34 33 31 31 32 34 38 39 39 41 39 35 39 35 37 29 37 27 31 31 35 35 30 37 31 25 27 31 34 33 37 34 32 38 38 39 41 39 40 39 43 42 42 43 43 41 41 46 46 46 46 46 45 44 43 43 44 44 44 43 43 44 45
45 47 45 41 34 35 34 33 33 30 26 27 30 29 28 30 32 32 28 32 29 32 33 35 37 34 34 35 34 40 42 41 39 43 40 39 39 38 36 35 36 41 36 30 32 30 33 32 28 27 27 25 38 38 33 34 30 27 31 38 39 41 42 43 44 45 44 43 41 39 41 44 45 46 45 45 45 44 43 43 43 43 43 43 43 43 44 44